Zurück zum Katalog

STARLINK-5564

AktivKommunikationVLEO
NORAD 56134·PAYLOAD·🇺🇸 United States

Gestartet Mar 29, 2023 von Cape Canaveral Space Force Station

Loading…

Nächste Überflüge (nächste 24 Stunden)

TLE

AktuellSource: CelesTrak SupGP

Epoche: Sep 14, 2026, 21:35 UTC

1 56134C 23046AT  26257.89979167 -.00040228  00000+0 -14572-2 0  2577
2 56134  43.0021 158.1539 0001659 269.2176 342.0029 15.27595475    18

Verfolge STARLINK-5564 in Echtzeit mit AllMySat

Download on the App Store